sat.trackr.live / text

‹ back to catalog

2023-081W

NORAD 56866 · 2023-081W

PAYLOAD ACTIVE UNKNOWN

§ Identity

Operator
Country
PRC
Launch date
2023-06-07
Launch site
JSC
Launch vehicle
Mass (kg)
RCS (m²)

External: N2YO · Heavens-Above · Gunter

§ Orbital elements

Epoch: 2026-09-22T21:05:52.482624Z

Period
94.37 min
Inclination
97.2804°
Eccentricity
0.0011134
Mean motion
15.25906440 rev/d
Perigee alt
480.4 km
Apogee alt
495.7 km
Semi-major
6,866.2 km
B*
1.5846e-4
RAAN
326.8657°
Arg perigee
34.7089°
Mean anomaly
325.4874°
Rev number
18,292

§ Raw data

2023-081W1 56866U 23081W   26265.87907966  .00003998  00000+0  15846-3 0  99932 56866  97.2804 326.8657 0011134  34.7089 325.4874 15.25906440182922

JSON: /api/v1/satellites/56866 · /tle

For live sub-satellite position, see the globe view (requires WebGL).

§ Visibility from observer

Set your observer location to see the next 7 days of passes ≥ 10°. The values pass through the URL so the page stays shareable.

No JS? Fill the form by hand. The geolocation button needs JavaScript.

§ Radio — SatNOGS DB

ModeDescriptionDownlinkUplink
LoRa Lora 401.900 MHz

1 transmitter · refreshed weekly from db.satnogs.org